TimeEET,TemperatureF,Dew PointF,Humidity,Sea Level PressureIn,VisibilityMPH,Wind Direction,Wind SpeedMPH,Gust SpeedMPH,PrecipitationIn,Events,Conditions,WindDirDegrees,DateUTC
12:50 AM,12.2,6.8,79,30.27,4.3,East,4.6,-,N/A,,Scattered Clouds,80,2013-01-12 22:50:00
1:50 AM,19.4,12.2,74,30.24,4.3,East,4.6,-,N/A,,Scattered Clouds,90,2013-01-12 23:50:00
2:00 AM,20,14,67,,4,East,4.6,,,,Mist,90,2013-01-13 00:00:00
2:50 AM,23.0,15.8,74,30.24,4.3,East,8.1,-,N/A,,Scattered Clouds,90,2013-01-13 00:50:00
3:50 AM,21.2,15.8,80,30.21,4.3,NE,4.6,-,N/A,,Scattered Clouds,50,2013-01-13 01:50:00
4:50 AM,23.0,15.8,74,30.21,4.3,NE,9.2,-,N/A,,Scattered Clouds,50,2013-01-13 02:50:00
5:50 AM,23.0,17.6,80,30.21,4.3,East,6.9,-,N/A,,Scattered Clouds,90,2013-01-13 03:50:00
6:50 AM,19.4,15.8,86,30.18,4.3,North,4.6,-,N/A,,Mostly Cloudy,360,2013-01-13 04:50:00
7:50 AM,24.8,17.6,74,30.18,4.3,SE,5.8,-,N/A,,Mostly Cloudy,140,2013-01-13 05:50:00
8:00 AM,24,17,67,,4,SE,5.8,,,,Mist,140,2013-01-13 06:00:00
8:50 AM,26.6,17.6,69,30.18,6.2,Variable,1.2,-,N/A,,Mostly Cloudy,0,2013-01-13 06:50:00
9:50 AM,28.4,19.4,69,30.18,6.2,SE,5.8,-,N/A,,Mostly Cloudy,140,2013-01-13 07:50:00
10:50 AM,32.0,17.6,55,30.15,6.2,SE,3.5,-,N/A,,Mostly Cloudy,140,2013-01-13 08:50:00
11:50 AM,32.0,19.4,60,30.12,6.2,SE,4.6,-,N/A,,Mostly Cloudy,140,2013-01-13 09:50:00
12:50 PM,33.8,19.4,56,30.12,6.2,Variable,2.3,-,N/A,,Mostly Cloudy,0,2013-01-13 10:50:00
1:50 PM,32.0,23.0,69,30.12,6.2,North,5.8,-,N/A,,Mostly Cloudy,350,2013-01-13 11:50:00
2:00 PM,32,22,56,,6,North,5.8,,,,Mostly Cloudy,350,2013-01-13 12:00:00
2:50 PM,32.0,23.0,69,30.12,6.2,Variable,2.3,-,N/A,,Mostly Cloudy,0,2013-01-13 12:50:00
3:50 PM,28.4,23.0,80,30.12,6.2,Variable,2.3,-,N/A,,Mostly Cloudy,0,2013-01-13 13:50:00
4:50 PM,28.4,21.2,74,30.12,3.7,East,4.6,-,N/A,,Mostly Cloudy,80,2013-01-13 14:50:00
5:50 PM,28.4,23.0,80,30.12,3.7,SE,2.3,-,N/A,,Mostly Cloudy,140,2013-01-13 15:50:00
6:50 PM,28.4,23.0,80,30.12,6.2,Variable,2.3,-,N/A,,Mostly Cloudy,0,2013-01-13 16:50:00
7:50 PM,23.0,21.2,93,30.12,6.2,East,2.3,-,N/A,,Mostly Cloudy,80,2013-01-13 17:50:00
8:00 PM,24,22,90,,6,East,2.3,,,,Mostly Cloudy,80,2013-01-13 18:00:00
8:50 PM,24.8,21.2,86,30.12,6.2,SE,3.5,-,N/A,,Mostly Cloudy,130,2013-01-13 18:50:00
9:50 PM,28.4,21.2,74,30.12,4.3,SE,5.8,-,N/A,,Mostly Cloudy,140,2013-01-13 19:50:00
10:50 PM,26.6,21.2,80,30.12,4.3,SE,5.8,-,N/A,,Mostly Cloudy,140,2013-01-13 20:50:00
11:50 PM,24.8,19.4,80,30.12,4.3,SE,4.6,-,N/A,,Mostly Cloudy,130,2013-01-13 21:50:00